Regional Weather Roundup
Issued by NWS Cleveland, OH

Home | Current Version | Previous Version | Text Only | Print | Product List | Glossary Off
Versions: 1 2 3 4 5 6 7 8 9 10 11 12 13 14 15 16 17 18 19 20 21 22 23 24 25 26 27 28 29 30 31 32 33 34 35 36 37 38 39 40 41 42 43 44 45 46 47 48 49 50

000
ASUS41 KCLE 241410
RWRCLE
OHIO REGIONAL WEATHER ROUNDUP
NATIONAL WEATHER SERVICE WILMINGTON, OH
1000 AM EDT TUE APR 24 2018

NOTE: "FAIR" INDICATES FEW OR NO CLOUDS BELOW 12,000 FEET WITH NO
SIGNIFICANT WEATHER AND/OR OBSTRUCTIONS TO VISIBILITY.

OHZ001>008-015>018-024>027-034-035-043-044-241500-
   NORTHWEST OHIO

CITY           SKY/WX    TMP DP  RH WIND       PRES   REMARKS
DEFIANCE       CLOUDY    53  49  86 E12       30.06F
FINDLAY        CLOUDY    56  47  71 E13       30.04F
TOLEDO EXPRESS LGT RAIN  52  52 100 E13       30.08F FOG
TOLEDO EXEC    CLOUDY    51  48  89 E8        30.10F FOG
LIMA           CLOUDY    54  50  86 E13       30.03F
$$

OHZ009>014-019>023-028>033-038-089-241500-
   NORTHEAST OHIO

CITY           SKY/WX    TMP DP  RH WIND       PRES   REMARKS
CLE-HOPKINS    CLOUDY    56  46  69 SE16      30.15S
CLE-LAKEFRONT  CLOUDY    57  42  57 SE14G21   30.12S
CUY CO. ARPT   NOT AVBL
LORAIN-ELYRIA  CLOUDY    52  46  80 E8        30.12F
ASHTABULA      CLOUDY    55  40  56 SE15      30.17F
AKRON-CANTON   LGT RAIN  53  44  71 E12       30.13F
WOOSTER        LGT RAIN  51  47  86 SE16      30.11F FOG
MANSFIELD      LGT RAIN  51  49  92 E16       30.08F
YOUNGSTOWN     CLOUDY    54  39  57 SE14G21   30.15F
$$

OHZ042-051>053-060>062-070>072-077>081-241500-
  SOUTHWEST OHIO

CITY           SKY/WX    TMP DP  RH WIND       PRES   REMARKS
CINC-COVINGTON LGT RAIN  54  53  97 E12       29.95S FOG
CINC-LUNKEN    LGT RAIN  55  53  93 E7        29.97S
HAMILTON       LGT RAIN  55  51  86 E9        29.98F
DAYTON         CLOUDY    53  52  96 E17G24    30.00F
WRIGHT-PAT AFB CLOUDY    54  49  85 E13       29.99F
DAYTON GENERAL LGT RAIN  54  50  86 E10G20    29.97F
WILMINGTON     CLOUDY    52  51  97 E13G22    29.98F
$$

OHZ036-037-039>041-045>050-054>059-063>069-073>076-082>088-241500-
  CENTRAL AND SOUTHEAST OHIO

CITY           SKY/WX    TMP DP  RH WIND       PRES   REMARKS
COLUMBUS       LGT RAIN  52  49  89 E9        30.03F
OSU AIRPORT    CLOUDY    52  50  93 E13       30.04F
BOLTON FIELD   DRIZZLE   52  50  93 E14G21    30.03F
RICKENBACK AFB LGT RAIN  51  51 100 E13       30.02F
NEWARK         LGT RAIN  51  49  92 NE9       30.05F FOG
MARION         LGT RAIN  52  49  89 SE12      30.06F FOG
LANCASTER      LGT RAIN  52  50  93 E10       30.04S
ZANESVILLE     NOT AVBL
NEW PHILLY     LGT RAIN  50  47  89 E12       30.11F
$$




USA.gov is the U.S. government's official web portal to all federal, state and local government web resources and services.